Location: Biltmore Gardens
(41.6070°N, 83.4666°W)
Time: 05:52:49
(UTC+00:00)

A-11 Canister half - Pass Details

Date: 18 April 2021
Orbit: 1526 x 1683 km, 47.3° (Epoch: 11 May)

Event Time Altitude Azimuth Distance (km) Brightness Sun altitude
Rises 02:29:56 0° 294° (WNW) 4,938 12.9 -22.7°
Reaches altitude 10° 02:33:07 10° 295° (WNW) 3,949 12.2 -23.2°
Maximum altitude 02:43:21 89° 25° (NNE) 1,674 9.1 -24.6°
Enters shadow 02:47:53 39° 115° (ESE) 2,308 9.4 -25.2°
